Hickory, NC

2:06 PM EDT on April 25, 2017 (GMT -0400)
Hickory Regional

Weather History for KHKY - October, 2012

Change the Weather History Date:

Wednesday, October 24, 2012

  Actual Average Record
Temperature  
Mean Temperature 64 °F -  
Max Temperature 81 °F 67 °F 82 °F (2001)
Min Temperature 50 °F 46 °F 29 °F (1969)
Growing Degree Days 14 (Base 50)    
Moisture  
Dew Point 51 °F    
Average Humidity 71    
Maximum Humidity 93    
Minimum Humidity 38    
Precipitation  
Precipitation 0.00 in - - ()
Sea Level Pressure  
Sea Level Pressure 30.11 in    
Wind  
Wind Speed 0 mph (West)    
Max Wind Speed 5 mph    
Max Gust Speed -    
Visibility 9 miles    
Events      
Averages and records for this station are not official NWS values.
T = Trace of Precipitation, MM = Missing Value Source: NWS Daily Summary

Daily Weather History Graph

Daily Weather History Graph

Search for Another Location

Airport or City:

Trip Planner

Search our weather history database for the weather conditions in past years. The results will help you decide how hot, cold, wet, or windy it might be!

Date:

Astronomy

Oct. 24, 2012 Rise Set
Actual Time 7:40 AM EDT 6:38 PM EDT
Civil Twilight 7:14 AM EDT 7:04 PM EDT
Nautical Twilight 6:44 AM EDT 7:34 PM EDT
Astronomical Twilight 6:14 AM EDT 8:03 PM EDT
Moon 3:45 PM EDT (10/24) 2:43 AM EDT (10/24)
Length of Visible Light 11h 49m
Length of Day
10h 57m
Waxing Gibbous, 76% of the Moon is Illuminated
Oct 24
Waxing Gibbous
Oct 29
Full
Nov 6
Last Quarter
Nov 13
New
Nov 20
First Quarter

Hourly Weather History & Observations

Time (EDT) Temp. Dew Point Humidity Pressure Visibility Wind Dir Wind Speed Gust Speed Precip Events Conditions
12:53 AM 55.0 °F 52.0 °F 89% 30.12 in 10.0 mi Calm Calm - N/A   Clear
1:53 AM 53.1 °F 50.0 °F 89% 30.11 in 10.0 mi Calm Calm - N/A   Clear
2:53 AM 53.1 °F 50.0 °F 89% 30.11 in 10.0 mi Calm Calm - N/A   Clear
3:53 AM 51.1 °F 48.9 °F 92% 30.11 in 9.0 mi Calm Calm - N/A   Clear
4:34 AM 51.8 °F 48.2 °F 88% 30.15 in 2.5 mi Calm Calm - N/A   Clear
4:42 AM 51.8 °F 48.2 °F 88% 30.15 in 3.0 mi Calm Calm - N/A   Clear
4:53 AM 51.1 °F 48.9 °F 92% 30.11 in 8.0 mi Calm Calm - N/A   Clear
5:53 AM 52.0 °F 50.0 °F 93% 30.12 in 9.0 mi Calm Calm - N/A   Clear
6:53 AM 51.1 °F 48.0 °F 89% 30.14 in 6.0 mi Calm Calm - N/A   Clear
7:53 AM 50.0 °F 48.0 °F 93% 30.16 in 8.0 mi Calm Calm - N/A   Clear
8:53 AM 53.1 °F 51.1 °F 93% 30.17 in 10.0 mi West 4.6 mph - N/A   Clear
9:53 AM 57.9 °F 53.1 °F 84% 30.17 in 10.0 mi West 4.6 mph - N/A   Clear
10:53 AM 64.9 °F 54.0 °F 68% 30.16 in 10.0 mi Calm Calm - N/A   Clear
11:53 AM 70.0 °F 54.0 °F 57% 30.14 in 10.0 mi Calm Calm - N/A   Clear
12:53 PM 75.0 °F 54.0 °F 48% 30.12 in 10.0 mi Calm Calm - N/A   Clear
1:53 PM 77.0 °F 52.0 °F 42% 30.09 in 10.0 mi Calm Calm - N/A   Clear
2:53 PM 78.1 °F 52.0 °F 40% 30.06 in 10.0 mi Calm Calm - N/A   Clear
3:53 PM 79.0 °F 52.0 °F 39% 30.06 in 10.0 mi Variable 4.6 mph - N/A   Clear
4:53 PM 79.0 °F 51.1 °F 38% 30.06 in 10.0 mi Calm Calm - N/A   Clear
5:53 PM 75.9 °F 52.0 °F 43% 30.06 in 10.0 mi Calm Calm - N/A   Clear
6:53 PM 69.1 °F 52.0 °F 54% 30.08 in 10.0 mi Calm Calm - N/A   Clear
7:53 PM 70.0 °F 51.1 °F 51% 30.09 in 10.0 mi Calm Calm - N/A   Clear
8:53 PM 66.0 °F 51.1 °F 59% 30.10 in 10.0 mi Calm Calm - N/A   Clear
9:53 PM 63.0 °F 51.1 °F 65% 30.10 in 10.0 mi Calm Calm - N/A   Clear
10:53 PM 61.0 °F 53.1 °F 75% 30.10 in 10.0 mi Calm Calm - N/A   Clear
11:53 PM 57.0 °F 52.0 °F 83% 30.10 in 10.0 mi Calm Calm - N/A   Clear